Wind_Speed
26 25 23 22 21 20 19 19 19 17 14 13 11 10 9 6 8 3 4 3 4 5 7 6 6 2 2 6 5 12 16 16 16 13 16 16 16 16 16 15 14 13 12 13 14
29 28 27 26 24 23 22 20 20 19 16 14 12 11 10 10 10 5 3 4 5 6 7 5 5 4 3 5 6 16 18 19 17 15 17 18 19 17 16 17 16 13 14 18 18
31 33 32 30 28 27 25 24 22 20 18 16 14 13 12 13 11 6 5 4 4 5 7 4 5 2 6 6 11 14 19 17 17 16 19 20 22 20 17 24 25 21 20 21 21
28 29 32 34 34 32 30 28 26 24 21 19 17 15 14 14 12 9 10 5 4 5 5 4 2 4 8 8 14 16 15 16 16 16 19 21 22 21 20 22 23 19 19 20 22
27 28 29 30 33 35 32 29 30 28 26 23 20 18 17 18 14 14 13 8 7 5 4 5 4 8 8 7 11 14 14 17 17 14 17 19 21 20 19 21 20 22 24 27 25
26 27 28 28 29 32 35 31 27 29 29 27 25 21 20 19 17 16 16 12 11 8 4 5 5 8 6 3 11 10 17 20 19 14 15 16 18 18 16 16 16 18 23 26 26
22 26 27 28 28 29 32 34 29 26 28 29 28 25 22 22 19 19 17 16 14 11 7 4 5 7 3 11 12 12 18 19 20 16 10 14 14 15 15 15 16 17 20 22 23
24 24 26 28 29 29 29 32 33 28 26 27 28 26 25 21 22 22 20 20 20 15 10 5 3 9 9 7 14 13 15 16 18 18 13 8 10 10 12 12 15 16 17 19 20
27 28 27 28 29 29 29 31 33 31 26 26 26 27 28 23 27 24 22 23 22 18 12 8 5 12 11 12 10 11 12 11 13 17 19 11 7 5 9 14 17 16 16 16 22
28 29 30 29 30 30 29 30 32 33 28 26 27 27 27 25 29 24 23 23 22 20 15 12 11 12 14 14 9 8 7 5 6 9 16 18 9 3 6 12 14 17 15 9 16
27 30 30 30 31 31 30 30 32 32 30 27 25 26 25 27 28 23 24 23 23 21 18 16 17 14 13 12 14 7 3 2 2 2 9 13 13 10 8 10 11 12 11 8 9
25 26 29 30 31 32 31 30 32 30 31 26 25 24 24 27 26 22 23 22 22 22 20 21 22 19 15 16 12 10 6 3 4 2 1 6 8 7 6 5 6 11 10 9 6
22 24 25 28 31 33 32 29 33 31 31 29 26 25 23 25 25 25 23 23 22 22 24 25 24 23 18 16 13 13 12 8 5 6 7 7 6 6 3 0 4 9 8 4 7
21 21 24 27 31 33 31 29 32 32 31 29 26 24 23 25 26 25 24 24 23 22 27 30 29 27 21 16 18 16 14 10 6 9 14 10 3 4 5 3 7 10 4 4 10
20 21 22 25 29 31 31 30 30 33 31 30 28 26 25 24 24 23 23 25 24 22 30 34 35 28 20 20 19 16 16 15 10 7 9 8 2 4 3 5 7 4 4 6 9
19 20 22 24 26 29 31 31 31 33 31 30 27 26 25 23 22 22 23 24 26 29 32 34 38 30 23 21 20 18 22 20 10 8 9 9 4 2 5 7 13 11 6 5 10
18 20 21 23 25 28 32 32 31 32 31 28 26 24 24 22 20 21 22 24 27 31 34 40 36 30 26 22 18 23 23 20 11 10 6 9 8 11 10 10 14 13 10 8 7
18 19 20 22 24 27 32 31 29 32 32 30 28 27 24 22 20 20 20 24 27 29 30 42 30 21 15 14 12 14 19 18 16 16 10 11 10 8 13 11 12 11 8 12 14
17 18 18 20 23 29 31 29 31 31 31 28 28 26 24 22 21 20 21 22 24 28 42 38 23 18 21 18 16 11 13 14 13 19 17 15 15 13 14 11 12 13 12 14 10
17 16 16 20 25 30 30 30 32 31 30 29 26 24 23 22 21 22 23 22 24 37 41 31 24 20 20 17 14 13 11 7 11 17 19 19 19 16 11 11 13 17 17 15 12
16 15 17 20 27 30 31 33 33 30 28 26 25 25 25 23 22 20 20 20 25 40 38 33 23 18 16 18 13 10 10 10 13 17 19 20 19 15 17 18 16 20 15 17 15
16 15 17 23 29 32 36 34 32 28 25 25 24 24 25 24 22 21 22 24 29 34 30 29 23 22 21 18 16 13 10 10 10 11 11 14 15 16 16 15 16 19 20 22 20
16 16 19 25 32 37 37 35 31 26 24 25 26 27 28 27 25 24 26 28 28 32 32 24 27 27 25 21 19 17 15 15 15 15 18 19 20 20 19 19 19 22 21 25 25
18 17 21 28 36 40 36 32 30 26 27 30 32 31 29 28 27 27 33 33 32 36 29 28 29 28 21 18 17 16 16 17 20 23 25 26 26 25 25 25 25 27 29 30 25
18 19 24 32 38 39 35 32 31 30 32 34 30 30 30 32 32 31 35 35 36 35 32 28 26 25 19 13 14 16 18 21 20 18 20 23 25 26 29 30 27 22 22 23 27
20 22 28 34 41 38 35 34 31 30 34 35 30 32 32 32 29 30 32 37 34 32 27 24 21 16 16 16 16 21 21 20 21 24 24 20 19 21 20 18 16 18 21 21 26
22 24 30 37 42 37 33 34 31 34 40 31 28 30 27 29 28 26 26 31 25 23 21 18 17 17 16 17 21 19 16 20 24 27 25 23 21 22 20 19 19 21 24 28 31
Wind_Direction
223 221 220 220 220 216 212 211 211 208 206 202 202 215 228 229 260 238 241 255 260 287 309 341 333 306 43 15 25 81 88 81 76 84 71 58 54 53 54 54 53 53 60 64 56
231 228 227 224 224 226 223 217 216 216 214 210 208 214 221 227 247 264 295 293 288 296 299 319 300 268 63 70 77 77 80 75 66 75 70 65 64 61 70 63 61 63 72 76 65
237 234 231 229 227 227 228 227 223 220 221 220 214 220 225 232 238 254 263 268 297 304 322 320 286 311 69 121 95 83 86 81 62 71 78 73 75 77 81 76 68 74 77 70 64
241 239 237 233 231 230 229 231 229 227 224 226 225 225 232 237 242 237 240 241 277 304 314 324 219 78 91 105 95 94 92 84 63 68 74 79 84 86 78 75 72 58 60 62 71
242 241 239 237 233 231 230 229 230 229 227 228 229 229 236 240 237 234 237 228 243 262 311 342 16 76 89 116 102 115 114 93 74 77 76 79 86 82 74 68 66 62 57 58 58
242 241 241 238 235 231 228 227 227 228 228 228 230 230 236 244 239 235 233 223 235 247 280 322 26 84 115 97 108 125 116 100 80 63 83 81 85 87 71 60 59 60 58 55 55
245 239 238 239 236 233 228 225 225 226 226 228 228 229 231 238 237 233 230 219 228 237 247 282 74 107 129 140 122 115 117 103 84 78 74 84 81 79 68 54 46 45 55 53 51
246 243 238 236 236 233 229 225 222 224 225 226 227 226 227 228 232 230 222 217 223 228 229 237 128 133 164 169 119 125 113 101 93 84 73 90 96 77 66 43 36 35 46 54 48
247 245 242 236 233 232 228 224 221 221 224 224 225 223 225 220 229 227 223 220 222 221 213 209 184 152 178 159 146 123 113 95 93 88 80 69 124 91 59 43 23 19 34 58 44
249 244 241 236 231 229 226 222 220 218 222 224 223 222 221 217 226 223 225 224 223 220 206 194 195 175 180 175 157 134 130 120 90 97 104 88 116 101 74 49 13 4 18 48 41
251 243 239 236 230 227 224 220 219 216 220 225 223 221 217 216 225 219 221 224 225 219 200 187 186 193 183 176 165 174 145 127 131 35 119 111 112 94 78 44 4 341 360 7 28
251 245 238 232 227 226 222 218 216 216 219 224 222 219 213 218 221 218 219 220 223 219 194 184 182 197 186 175 176 195 190 181 217 264 201 154 130 110 102 58 349 341 0 356 340
252 247 239 232 224 222 221 216 212 214 216 217 219 215 208 215 215 215 218 217 217 216 195 180 189 192 194 193 197 211 218 230 241 293 289 259 164 159 128 108 325 330 351 346 321
254 246 238 230 222 218 215 215 210 213 214 216 214 209 206 209 214 213 215 217 214 211 192 178 188 196 198 205 211 220 238 256 297 315 307 300 209 151 60 321 294 301 295 291 315
252 243 235 227 219 214 209 211 209 209 212 211 209 204 209 212 215 216 209 211 212 196 197 191 187 199 195 212 227 232 245 262 272 298 309 309 306 112 110 18 346 329 265 308 310
248 236 230 224 215 209 204 205 206 206 210 210 207 205 209 212 217 222 214 209 203 188 198 197 188 198 197 212 230 248 250 258 257 238 274 298 296 338 254 304 340 318 260 285 289
240 232 227 219 211 204 199 200 202 203 205 204 204 204 209 211 215 219 217 211 205 197 193 186 192 195 206 219 244 247 248 254 232 239 260 280 295 305 328 312 309 319 243 242 294
235 231 225 217 207 196 194 196 198 200 204 202 200 202 206 211 211 212 215 214 209 199 189 183 191 195 207 206 202 233 244 249 248 234 239 266 280 321 326 336 355 5 319 249 249
234 230 224 214 199 191 190 191 195 199 201 202 203 204 208 211 207 206 208 214 206 189 180 182 178 194 196 210 224 232 240 251 247 228 241 258 274 295 310 304 342 343 343 336 280
231 226 217 205 193 189 185 187 195 195 197 200 200 204 210 210 210 207 201 202 197 178 182 174 183 202 208 216 221 228 239 243 238 234 247 260 276 302 316 318 316 306 315 326 301
227 217 209 194 189 186 180 189 193 194 194 194 196 199 203 204 204 204 198 193 185 179 182 170 187 203 200 195 211 226 235 251 258 259 267 278 286 299 306 317 317 313 315 317 305
221 208 199 187 184 177 184 189 190 190 187 187 192 196 194 192 187 187 181 179 182 183 170 176 196 200 199 205 214 232 230 252 258 269 279 287 292 298 300 303 304 313 303 306 297
214 203 191 184 176 178 188 188 186 184 180 186 185 186 182 175 171 171 171 171 181 174 180 195 203 207 214 228 234 240 256 265 272 272 280 290 294 291 294 299 300 296 297 308 303
210 198 189 180 179 188 189 186 178 179 182 180 175 169 166 164 164 170 168 163 173 179 186 201 206 216 231 247 253 267 278 288 295 296 295 293 290 287 285 285 286 285 289 300 297
204 193 187 183 183 189 187 179 183 184 179 172 164 159 161 167 169 170 174 169 177 181 189 200 208 222 231 244 273 284 284 285 290 298 296 295 287 283 279 276 276 284 282 285 287
198 191 187 185 186 188 188 182 183 178 171 164 172 173 173 168 171 172 171 168 177 184 194 203 219 220 235 257 278 298 286 271 286 301 304 306 293 287 286 284 274 265 257 258 263
196 191 188 186 184 187 188 188 186 177 173 175 180 184 175 169 167 167 182 186 190 201 205 210 221 236 248 263 281 290 282 277 296 305 303 300 295 291 283 281 277 266 262 266 272
Height
5880 5883 5886 5889 5891 5894 5897 5899 5902 5904 5907 5908 5910 5911 5912 5913 5913 5916 5916 5918 5919 5919 5919 5921 5920 5920 5921 5919 5917 5916 5915 5914 5913 5912 5910 5909 5907 5906 5906 5905 5903 5901 5900 5899 5898
5875 5878 5882 5885 5888 5891 5894 5897 5899 5902 5905 5907 5909 5910 5911 5912 5913 5916 5917 5918 5919 5920 5920 5922 5922 5922 5922 5920 5919 5916 5916 5915 5916 5914 5912 5911 5910 5910 5909 5907 5905 5904 5902 5901 5899
5869 5873 5876 5880 5884 5887 5890 5893 5897 5900 5902 5904 5907 5908 5909 5910 5913 5915 5917 5917 5919 5920 5920 5923 5923 5924 5923 5922 5920 5918 5917 5917 5918 5916 5914 5913 5913 5912 5911 5909 5909 5908 5906 5903 5900
5864 5867 5870 5874 5879 5883 5886 5890 5893 5896 5899 5902 5904 5906 5907 5908 5913 5914 5916 5918 5919 5919 5920 5923 5924 5925 5924 5924 5921 5920 5920 5919 5920 5918 5917 5916 5916 5915 5915 5913 5912 5912 5909 5906 5903
5858 5861 5864 5868 5872 5876 5881 5885 5888 5892 5896 5898 5901 5904 5905 5906 5910 5911 5914 5917 5918 5919 5920 5922 5923 5924 5925 5925 5924 5922 5922 5921 5921 5921 5920 5919 5918 5918 5917 5916 5915 5913 5910 5908 5906
5853 5855 5859 5862 5866 5870 5874 5879 5883 5887 5891 5894 5897 5901 5903 5905 5907 5908 5912 5915 5916 5917 5919 5921 5922 5923 5925 5927 5927 5926 5924 5923 5923 5923 5922 5922 5922 5921 5921 5919 5918 5915 5913 5911 5909
5847 5850 5853 5856 5860 5864 5868 5874 5878 5882 5886 5890 5893 5897 5900 5901 5903 5905 5909 5912 5913 5916 5919 5920 5922 5924 5926 5927 5928 5928 5927 5925 5925 5925 5925 5924 5925 5923 5923 5922 5920 5918 5916 5914 5912
5842 5845 5847 5850 5854 5858 5862 5867 5873 5877 5881 5885 5889 5892 5895 5899 5899 5902 5905 5909 5911 5914 5916 5919 5922 5924 5925 5926 5927 5928 5928 5927 5926 5926 5927 5927 5927 5926 5925 5924 5923 5921 5919 5916 5914
5836 5839 5841 5845 5848 5852 5856 5861 5867 5872 5876 5880 5884 5888 5890 5894 5895 5898 5902 5905 5908 5910 5914 5917 5921 5924 5925 5926 5927 5929 5929 5928 5928 5927 5927 5928 5928 5928 5927 5926 5924 5923 5923 5919 5916
5830 5832 5835 5838 5842 5846 5851 5856 5861 5867 5872 5875 5878 5884 5887 5890 5890 5895 5899 5902 5905 5907 5912 5915 5919 5922 5924 5926 5927 5928 5929 5929 5929 5930 5928 5929 5930 5931 5929 5928 5926 5925 5923 5922 5919
5822 5825 5828 5832 5836 5840 5845 5850 5857 5862 5866 5870 5875 5878 5882 5885 5886 5892 5895 5899 5902 5905 5909 5913 5918 5920 5923 5925 5927 5928 5929 5930 5930 5930 5930 5929 5930 5931 5931 5929 5928 5926 5924 5924 5921
5816 5818 5821 5825 5829 5834 5839 5845 5851 5858 5862 5866 5869 5874 5878 5881 5885 5889 5892 5896 5899 5902 5907 5911 5916 5917 5921 5924 5926 5928 5929 5930 5930 5930 5930 5930 5930 5930 5930 5930 5929 5927 5925 5924 5921
5810 5811 5814 5818 5823 5828 5834 5840 5845 5851 5856 5861 5865 5870 5874 5877 5881 5885 5889 5892 5896 5899 5905 5908 5914 5916 5920 5923 5925 5927 5928 5928 5929 5929 5928 5929 5929 5929 5930 5929 5929 5928 5926 5924 5920
5804 5806 5809 5812 5818 5822 5829 5834 5840 5845 5851 5857 5861 5866 5869 5872 5876 5881 5885 5888 5892 5896 5902 5906 5911 5915 5918 5921 5924 5926 5926 5927 5927 5927 5927 5927 5929 5929 5929 5928 5927 5926 5926 5924 5920
5800 5801 5803 5807 5811 5817 5824 5829 5835 5841 5847 5852 5856 5861 5865 5870 5872 5876 5880 5883 5887 5893 5898 5901 5907 5912 5917 5919 5922 5924 5925 5925 5926 5926 5926 5926 5927 5928 5928 5927 5926 5925 5924 5923 5920
5795 5796 5799 5802 5806 5812 5818 5824 5830 5837 5841 5847 5852 5857 5862 5865 5869 5871 5875 5879 5883 5887 5893 5898 5904 5909 5916 5917 5920 5923 5923 5923 5924 5925 5925 5924 5926 5926 5926 5925 5924 5923 5922 5921 5919
5790 5792 5794 5798 5802 5807 5812 5819 5826 5831 5838 5844 5849 5854 5857 5862 5865 5868 5872 5876 5879 5882 5888 5895 5901 5908 5912 5916 5919 5920 5921 5921 5923 5923 5924 5924 5925 5924 5924 5923 5921 5919 5919 5918 5916
5786 5788 5790 5794 5798 5803 5809 5816 5822 5826 5833 5839 5844 5848 5853 5857 5861 5864 5868 5872 5876 5881 5888 5893 5901 5908 5912 5915 5916 5917 5918 5919 5920 5921 5922 5922 5923 5923 5922 5920 5919 5915 5914 5915 5913
5782 5784 5787 5791 5795 5800 5806 5813 5817 5822 5829 5836 5841 5845 5850 5854 5858 5862 5865 5869 5874 5880 5887 5893 5902 5906 5909 5912 5914 5915 5916 5916 5916 5918 5919 5920 5920 5921 5920 5919 5917 5912 5912 5910 5910
5779 5782 5784 5788 5792 5797 5804 5810 5814 5819 5826 5833 5838 5844 5848 5851 5855 5857 5861 5866 5871 5878 5885 5895 5901 5904 5907 5909 5911 5913 5914 5914 5914 5915 5917 5917 5917 5918 5917 5916 5915 5910 5909 5908 5908
5777 5779 5782 5786 5790 5796 5802 5806 5811 5817 5823 5830 5835 5839 5844 5848 5852 5855 5860 5866 5871 5877 5884 5893 5898 5902 5905 5907 5909 5911 5911 5912 5913 5913 5914 5914 5914 5914 5913 5913 5911 5907 5906 5903 5902
5774 5777 5780 5784 5790 5795 5799 5804 5810 5816 5822 5828 5832 5837 5842 5845 5849 5853 5858 5864 5870 5878 5886 5892 5896 5899 5902 5905 5907 5908 5909 5910 5911 5911 5910 5910 5911 5910 5909 5909 5907 5904 5900 5899 5898
5771 5775 5779 5783 5789 5793 5797 5803 5808 5815 5820 5825 5829 5835 5839 5842 5847 5851 5856 5863 5871 5878 5884 5889 5894 5897 5900 5903 5904 5906 5907 5907 5906 5906 5906 5906 5905 5904 5903 5903 5902 5900 5896 5895 5894
5769 5773 5777 5782 5787 5791 5797 5803 5809 5814 5819 5823 5828 5832 5837 5842 5846 5850 5855 5861 5869 5876 5882 5886 5891 5895 5899 5901 5902 5902 5902 5902 5901 5900 5899 5898 5897 5897 5896 5896 5895 5893 5891 5888 5887
5767 5771 5775 5781 5785 5791 5797 5804 5809 5812 5818 5823 5829 5833 5837 5841 5845 5850 5855 5861 5867 5874 5879 5884 5889 5892 5895 5897 5898 5898 5898 5897 5896 5895 5894 5892 5890 5888 5887 5887 5887 5886 5884 5883 5881
5765 5769 5773 5778 5783 5790 5797 5804 5808 5813 5818 5824 5828 5832 5837 5842 5848 5851 5856 5861 5867 5873 5878 5882 5886 5890 5892 5893 5894 5893 5892 5891 5890 5888 5887 5884 5882 5881 5879 5878 5878 5878 5876 5875 5872
5761 5765 5771 5776 5783 5791 5796 5803 5808 5812 5818 5823 5828 5832 5838 5844 5850 5855 5861 5865 5870 5874 5878 5881 5884 5886 5888 5890 5889 5890 5888 5886 5884 5882 5880 5878 5876 5874 5872 5870 5870 5870 5869 5868 5866